Location: Launay
(47.2429°N, 1.5727°E)
Time: 21:03:18
(UTC+00:00)

Cosmos 2298 Rocket - Pass Details

Date: 19 May 2025
Orbit: 773 x 781 km, 74.0° (Epoch: 21 June)

Event Time Altitude Azimuth Distance (km) Brightness Sun altitude
Rises 21:17:11 0° 340° (NNW) 3,280 8.8 -14.5°
Reaches altitude 10° 21:19:38 10° 344° (NNW) 2,348 7.7 -14.7°
Maximum altitude 21:24:54 58° 64° (ENE) 908 4.3 -15.3°
Enters shadow 21:27:58 24° 135° (SE) 1,559 5.0 -15.6°
